Starlink 11081

operational
NORAD ID: 60405 Int'l Des: 2024-141 Owner: SPXS Country: US Constellation: starlink
LEOCIRCULAR

Über Starlink 11081

Beschreibung wird geladen...

Live-Position

3D-Globus wird geladen...

Nächste Überflüge

Höhenverlauf

Altitude vs Time

uPlot chart will show altitude changes over time

Zweizeiliger Elementsatz

1 60405U 24141H 25259.07038376 .00001438 00000-0 16724-4 0 9994
2 60405 53.1603 227.3140 0001476 97.7426 262.3760 15.69718254 64269
Epoch: 16. Sept. 2025 • Age: 15 hours

Aktueller Status

Höhe 363.7 km
Geschwindigkeit 7.69 km/s
Subsatellitenpunkt -14.46°S, 175.31°E
Startdatum 10. Aug. 2024
Alter 1.1 years
Typ internet

Technische Details

Klassifizierung Payload
Masse 960.00 kg
Trockenmasse 910.00 kg
Gesamtmasse 960.00 kg
Länge 0.30 m
Durchmesser 4.10 m
Spannweite 29.00 m
Form Box + pan
Hersteller SPXS
Bus-Typ Starlink V2MD
Phasenstatus In Orbit
Besitzer/Staat SPXS/US

Große Konstellationen

Loading constellations...